Regional Weather Roundup
Issued by NWS

Home | Current Version | Previous Version | Graphics & Text | Print | Product List | Glossary On
Versions: 1 2 3 4 5 6 7 8 9 10 11 12 13 14 15 16 17 18 19 20 21 22 23 24 25 26 27 28 29 30 31 32 33 34 35 36 37 38 39 40 41 42 43 44 45 46 47 48 49 50
997
ASUS44 KJAN 212110
RWRMS

MISSISSIPPI HOURLY WEATHER ROUNDUP
NATIONAL WEATHER SERVICE JACKSON MS
300 PM CST SUN DEC 21 2014

NOTE: "FAIR: INDICATES FEW OR NO CLOUDS BELOW 12,000 FEET WITH NO
SIGNIFICANT WEATHER AND/OR OBSTRUCTIONS TO VISIBILITY.

MSZ001>002-007>008-010>013-018>021-025>028-034>036-212200-
NORTHWEST MISSISSIPPI

CITY           SKY/WX    TMP DP  RH WIND       PRES   REMARKS
CLARKSDALE     FAIR      55  36  47 E8        30.03F
CLEVELAND      FAIR      57  38  49 SE8       30.01F
GREENWOOD      SUNNY     61  42  49 E7        30.02F
GREENVILLE     SUNNY     57  39  51 SE10      30.01F
GRENADA        FAIR      57  39  51 CALM      30.03F
OLIVE BRANCH   MOSUNNY   54  34  47 SE6       30.04F
OXFORD         FAIR      55  32  41 S3        30.05F
TUNICA         PTCLDY    54  36  50 E5        30.03F
$$

MSZ003>006-009-014>017-022>024-029>033-037>039-212200-
NORTHEAST MISSISSIPPI

CITY           SKY/WX    TMP DP  RH WIND       PRES   REMARKS
COLUMBUS AFB   CLOUDY    52  43  73 CALM      30.06F
CORINTH        FAIR      57  36  44 S7        30.04F
GOLDN TRIANGLE CLOUDY    52  43  71 NE3       30.06F
STARKVILLE     CLOUDY    52  45  76 E5        30.05F
TUPELO         MOSUNNY   55  41  59 SW8       30.06F
$$

MSZ040-058-212200-
CENTRAL MISSISSIPPI

CITY           SKY/WX    TMP DP  RH WIND       PRES   REMARKS
JACKSON INTL   MOSUNNY   61  45  55 VRB3      30.01F
JACKSON HAWKNS SUNNY     60  46  59 S7        30.01F
MERIDIAN KEY   CLOUDY    53  46  77 E6        30.05S
MERIDIAN NAS   CLOUDY    49  45  86 E6        30.06F
RAYMOND        FAIR      63  57  82 SE3       30.00F
VICKSBURG      SUNNY     61  46  57 SE6       30.00F
$$

MSZ059>079-212200-
SOUTH MISSISSIPPI

CITY           SKY/WX    TMP DP  RH WIND       PRES   REMARKS
HATTIESBURG    CLOUDY    54  49  83 CALM      30.04F
MCCOMB         CLOUDY    58  49  72 E5        30.00F
NATCHEZ        SUNNY     63  48  59 E6        30.00F
PINE BELT      CLOUDY    54  46  76 NE5       30.04F
$$

MSZ080>082-212200-
COASTAL MISSISSIPPI

CITY           SKY/WX    TMP DP  RH WIND       PRES   REMARKS
BAY ST LOUIS     N/A     57  48  72 SE5       30.02F
BILOXI         CLOUDY    59  53  82 NE5       30.01
PASCAGOULA     CLOUDY    58  53  84 NE5       30.01F
GULFPORT       CLOUDY    59  52  77 E3        30.01F
$$



USA.gov is the U.S. government's official web portal to all federal, state and local government web resources and services.